[[{"header":{"parameterUnit":"m.s-1","parameterCategory":1,"la1":30.2991,"la2":30.254,"lo1":-89.0895,"lo2":-89.0444,"dy":0.0017,"dx":0.0017,"nx":28,"ny":28,"refTime":"2025-11-06T09:00:00:Z","depth":0,"parameterNumber":2,"parameterNumberName":"U-component_of_WINDS"},"data":[0,0,0,0,0,0,0,0,0,0,0,0,0,0,0,0,0,0,0,0,0,0,0,0,0,0,0,0,0,0,0,0,0,0,0,0,0,0,0,0,0,0,0,0,0,0,0,0,0,0,0,0,0,0,0,0,0,0,1.2118,1.2119,0,1.2258,1.2259,1.2261,1.2278,1.2277,1.2275,1.2274,1.2421,1.2426,1.2431,0,0,0,0,0,0,0,0,0,0,0,0,0,1.1869,1.1873,1.2118,1.2119,1.2121,1.2258,1.226,1.2261,1.2278,1.2277,1.2275,1.2274,1.2419,1.2425,1.2432,0,0,0,0,0,0,0,0,0,0,0,0,0,1.199,1.1875,1.2117,1.2146,1.215,1.2257,1.226,1.2262,1.2279,1.2277,1.2275,1.2273,1.2417,1.2425,1.2433,1.2522,0,0,1.2456,1.246,0,0,0,0,0,0,0,0,1.1983,1.1999,1.214,1.2144,1.2149,1.2248,1.2226,1.2349,1.2279,1.223,1.2274,1.2272,1.2365,1.2377,1.2408,1.2529,1.2535,1.2457,1.2462,1.2465,1.2467,0,0,0,0,0,0,0,1.1975,1.1993,1.2173,1.2142,1.2147,1.2153,1.2168,1.2249,1.2308,1.2234,1.2236,1.2252,1.2368,1.2401,1.2412,1.2537,1.2457,1.2464,1.2469,1.2472,1.274,1.2743,0,0,0,0,0,0,1.196,1.1986,1.2169,1.2177,1.2059,1.2159,1.2176,1.2219,1.2307,1.2318,1.2253,1.2252,1.2388,1.2403,1.2417,1.2529,1.2465,1.2472,1.2477,1.2738,1.2741,1.2743,0,0,0,0,0,0,1.1955,1.1976,1.2163,1.2082,1.2106,1.2166,1.2213,1.2222,1.2256,1.2321,1.2332,1.2276,1.2387,1.2406,1.2496,1.2534,1.2476,1.2483,1.2735,1.2739,1.2742,1.2751,0,0,0,0,0,0,1.1948,1.1974,1.2008,1.2083,1.2111,1.2238,1.2216,1.2227,1.2269,1.2268,1.2346,1.2357,1.2387,1.2484,1.2504,1.2544,1.2489,1.2732,1.2737,1.2741,1.2748,1.2755,1.2761,0,0,0,0,0,1.1939,1.2005,1.2009,1.2031,1.2153,1.224,1.2256,1.2289,1.2271,1.2306,1.2349,1.2354,1.2527,1.2493,1.2515,1.2558,1.273,1.2735,1.2741,1.2745,1.2754,1.2761,0,0,0,0,0,0,1.1934,1.2015,1.2021,1.2113,1.217,1.2243,1.2288,1.2297,1.236,1.2357,1.2396,1.2414,1.2502,1.2539,1.2501,1.265,1.2627,1.2637,1.2622,1.2631,1.2637,1.2627,1.2496,0,0,0,0,0,1.1943,1.2006,1.2074,1.215,1.2177,1.2228,1.2267,1.2287,1.2348,1.2372,1.2421,1.248,1.2548,1.2592,1.2657,1.2754,1.2772,1.2794,1.2801,1.2806,1.2814,1.2869,1.288,1.2762,1.2762,1.2761,0,0,1.1964,1.2016,1.2054,1.215,1.2196,1.2261,1.2248,1.2317,1.2366,1.2383,1.247,1.2509,1.2578,1.2671,1.2715,1.2705,1.2851,1.2813,1.2816,1.2822,1.2876,1.2887,1.2897,1.2765,1.2765,1.2764,0,0,1.2035,1.208,1.2148,1.2195,1.2264,1.2298,1.2314,1.2387,1.2412,1.2501,1.2515,1.2575,1.269,1.2739,1.2779,1.287,1.2878,1.2891,1.2925,1.2978,1.2987,1.2996,1.3029,1.304,1.2899,1.2899,1.2899,0,1.2052,1.2149,1.2182,1.2252,1.2294,1.2312,1.2382,1.2426,1.2514,1.2543,1.2531,1.2677,1.2724,1.283,1.2852,1.2884,1.2905,1.2882,1.2983,1.2992,1.3,1.3033,1.3045,1.29,1.29,1.29,1.29,0,1.2167,1.2235,1.2282,1.2366,1.2414,1.2483,1.2528,1.2573,1.259,1.2625,1.2716,1.2774,1.2852,1.2879,1.2896,1.2988,1.298,1.2975,1.2952,1.3012,1.3043,1.3056,1.2902,1.2901,1.2901,1.2901,0,0,1.2238,1.234,1.2356,1.2395,1.2474,1.2528,1.2599,1.2675,1.2713,1.2774,1.2835,1.2933,1.293,1.2975,1.2998,1.3045,1.3115,1.3034,1.3037,1.3048,1.3221,1.3224,1.3238,1.312,1.3123,1.3125,1.3215,0,1.2318,1.2443,1.2476,1.2583,1.2647,1.2666,1.2728,1.2784,1.2819,1.288,1.2919,1.2988,1.2977,1.3005,1.3052,1.3096,1.315,1.309,1.3179,1.3182,1.3161,1.3254,1.3257,1.334,1.3227,1.323,1.3231,0,1.2427,1.249,1.2603,1.2676,1.2704,1.2759,1.2832,1.2889,1.2954,1.2976,1.3028,1.3047,1.3123,1.3096,1.3203,1.3162,1.32,1.3228,1.3232,1.3241,1.321,1.3266,1.3367,1.3379,1.325,1.3249,1.3247,0,1.2468,1.2581,1.2663,1.2696,1.2782,1.2821,1.2859,1.2921,1.2965,1.303,1.3059,1.3132,1.3172,1.3229,1.3268,1.3244,1.3372,1.3348,1.3393,1.3393,1.3419,1.3417,1.3527,1.3444,1.3444,1.3443,1.3443,0,1.2554,1.2622,1.2683,1.2734,1.2812,1.285,1.2927,1.2966,1.3022,1.3082,1.3103,1.3159,1.3207,1.327,1.3301,1.3386,1.3404,1.3425,1.3432,1.3423,1.342,1.3449,1.3444,1.3447,1.3446,1.3445,1.3445,0,1.2611,1.2654,1.2746,1.282,1.2841,1.2896,1.296,1.3011,1.3047,1.3123,1.3143,1.3201,1.3277,1.3321,1.3417,1.3438,1.3531,1.3536,1.3509,1.3512,1.3556,1.3551,1.3688,1.3709,1.3611,1.3612,1.3613,0,1.2663,1.2717,1.2797,1.2838,1.2876,1.2943,1.2988,1.3028,1.3075,1.3154,1.3196,1.3272,1.3336,1.3456,1.3507,1.3581,1.3588,1.3631,1.3599,1.3589,1.3589,1.3586,1.3592,1.3636,1.3637,1.3638,1.3639,0,1.2751,1.277,1.2833,1.2905,1.2959,1.3017,1.3076,1.3109,1.316,1.3211,1.3288,1.3337,1.3435,1.3512,1.359,1.3631,1.3644,1.3648,1.3663,1.3654,1.3636,1.3647,1.3524,1.3645,1.3644,1.3644,1.3643,1.3643,1.2807,1.2856,1.2921,1.2992,1.304,1.3095,1.3146,1.319,1.3255,1.3337,1.3357,1.3439,1.3504,1.3611,1.3653,1.3719,1.3712,1.3733,1.3738,1.3743,1.3744,1.3626,1.3733,1.3733,1.3733,1.3733,1.3733,0,1.2896,1.2939,1.3004,1.3085,1.3141,1.3148,1.3214,1.3261,1.3332,1.3392,1.3454,1.3544,1.3618,1.3676,1.3753,1.3794,1.3802,1.3813,1.3811,1.382,1.3746,1.3725,1.3806,1.3806,1.3806,1.3806,1.3805,1.3805,1.2949,1.3032,1.3059,1.3168,1.321,1.329,1.3327,1.3378,1.3426,1.3525,1.3587,1.3624,1.3684,1.3765,1.3835,1.385,1.3878,1.3888,1.3904,1.3833,1.3825,1.3818,1.3799,1.3893,1.3893,1.3973,1.3974,1.3974]},{"header":{"parameterUnit":"m.s-1","parameterCategory":1,"la1":30.2991,"la2":30.254,"lo1":-89.0895,"lo2":-89.0444,"dy":0.0017,"dx":0.0017,"nx":28,"ny":28,"refTime":"2025-11-06T09:00:00:Z","depth":0,"parameterNumber":3,"parameterNumberName":"V-component_of_WINDS"},"data":[0,0,0,0,0,0,0,0,0,0,0,0,0,0,0,0,0,0,0,0,0,0,0,0,0,0,0,0,0,0,0,0,0,0,0,0,0,0,0,0,0,0,0,0,0,0,0,0,0,0,0,0,0,0,0,0,0,0,1.8703,1.8703,0,1.8717,1.8718,1.8718,1.87,1.8699,1.8699,1.8698,1.8711,1.8712,1.8713,0,0,0,0,0,0,0,0,0,0,0,0,0,1.8659,1.866,1.8703,1.8703,1.8704,1.8717,1.8718,1.8718,1.87,1.8699,1.8699,1.8698,1.8711,1.8712,1.8713,0,0,0,0,0,0,0,0,0,0,0,0,0,1.8676,1.866,1.8703,1.8697,1.8696,1.8717,1.8718,1.8718,1.87,1.8699,1.8698,1.8698,1.8711,1.8712,1.8713,1.8741,0,0,1.8718,1.8718,0,0,0,0,0,0,0,0,1.8675,1.8678,1.8697,1.8697,1.8697,1.8706,1.8707,1.8726,1.8701,1.8699,1.8698,1.8697,1.871,1.8712,1.8716,1.8742,1.8743,1.8718,1.8719,1.8719,1.872,0,0,0,0,0,0,0,1.8674,1.8677,1.8709,1.8698,1.8697,1.8692,1.8694,1.871,1.871,1.8699,1.8698,1.87,1.871,1.8715,1.8717,1.8743,1.8718,1.8719,1.872,1.8721,1.8791,1.8792,0,0,0,0,0,0,1.8674,1.8676,1.8708,1.8709,1.8683,1.8694,1.8695,1.8704,1.8709,1.8709,1.87,1.8699,1.8713,1.8715,1.8717,1.8749,1.8719,1.8721,1.8722,1.879,1.8791,1.8792,0,0,0,0,0,0,1.8673,1.8677,1.8708,1.8692,1.8696,1.8696,1.8705,1.8705,1.871,1.8711,1.871,1.8706,1.8712,1.8715,1.8735,1.875,1.8721,1.8723,1.8789,1.879,1.8792,1.8815,0,0,0,0,0,0,1.8672,1.8677,1.8688,1.8693,1.8697,1.8727,1.8706,1.8706,1.8713,1.8711,1.8716,1.8716,1.8712,1.8733,1.8737,1.8751,1.8724,1.8788,1.879,1.8791,1.8813,1.8817,1.8821,0,0,0,0,0,1.867,1.8694,1.8689,1.8693,1.8711,1.8728,1.873,1.8725,1.8714,1.8725,1.8725,1.8716,1.8748,1.8736,1.8739,1.8754,1.8787,1.8789,1.8791,1.8811,1.8816,1.8821,0,0,0,0,0,0,1.8691,1.8694,1.8689,1.8715,1.8721,1.8725,1.8738,1.8731,1.874,1.8738,1.8731,1.8733,1.8754,1.8756,1.8743,1.8781,1.8765,1.8768,1.8779,1.8784,1.8788,1.8787,1.8725,0,0,0,0,0,1.8698,1.8712,1.8714,1.8737,1.874,1.8739,1.8746,1.8742,1.8748,1.875,1.8752,1.8758,1.8769,1.8777,1.8787,1.8813,1.8814,1.8825,1.8829,1.8832,1.8835,1.8848,1.8853,1.88,1.88,1.88,0,0,1.8714,1.8718,1.8727,1.8741,1.8745,1.8759,1.8741,1.8757,1.8766,1.8752,1.8772,1.8773,1.8779,1.8802,1.8813,1.8805,1.885,1.8835,1.8838,1.8839,1.8851,1.8856,1.8861,1.8801,1.8801,1.8801,0,0,1.8749,1.8754,1.8773,1.8777,1.8784,1.8783,1.8787,1.8792,1.8792,1.8812,1.8801,1.8813,1.8832,1.8837,1.8842,1.8878,1.8869,1.8881,1.8902,1.8914,1.8919,1.8922,1.8935,1.8939,1.8884,1.8884,1.8884,0,1.8768,1.8789,1.8783,1.8799,1.8806,1.8794,1.8812,1.8817,1.8827,1.8831,1.8822,1.8846,1.8849,1.8873,1.8881,1.8886,1.889,1.8881,1.8918,1.8922,1.8925,1.8937,1.8942,1.8885,1.8885,1.8885,1.8885,0,1.8811,1.8825,1.8839,1.8849,1.8857,1.8874,1.8871,1.8879,1.8874,1.8874,1.8893,1.8896,1.8907,1.8912,1.8907,1.8935,1.8929,1.892,1.8903,1.8932,1.8943,1.8947,1.8887,1.8887,1.8886,1.8886,0,0,1.886,1.8866,1.8872,1.8875,1.8882,1.8892,1.8908,1.8919,1.8926,1.8933,1.8946,1.8962,1.8953,1.8958,1.8954,1.8965,1.8993,1.8954,1.8954,1.896,1.9022,1.903,1.9035,1.8987,1.8988,1.8988,1.9022,0,1.8895,1.8924,1.8919,1.8946,1.8959,1.8947,1.8961,1.8966,1.8966,1.8976,1.8975,1.8987,1.8974,1.8977,1.8987,1.8987,1.9005,1.8985,1.8998,1.8999,1.8997,1.9041,1.9049,1.908,1.9026,1.9027,1.9027,0,1.8941,1.8949,1.8978,1.8981,1.8986,1.8999,1.9007,1.9017,1.9022,1.9021,1.9027,1.902,1.9035,1.9018,1.9039,1.9025,1.903,1.9031,1.9032,1.9033,1.9015,1.9043,1.909,1.9094,1.9034,1.9033,1.9033,0,1.8973,1.8992,1.9011,1.9014,1.9019,1.9028,1.903,1.9034,1.904,1.9048,1.9051,1.906,1.9065,1.9072,1.9068,1.9056,1.9089,1.9072,1.9088,1.9088,1.9095,1.9095,1.9144,1.9099,1.9099,1.9099,1.9099,0,1.9013,1.9031,1.9025,1.9037,1.9056,1.905,1.9069,1.907,1.9073,1.9085,1.9075,1.9085,1.9079,1.9089,1.9085,1.9102,1.9105,1.9104,1.9103,1.9105,1.9105,1.9108,1.9106,1.91,1.91,1.9099,1.9099,0,1.9053,1.905,1.907,1.9072,1.9073,1.9087,1.9089,1.9099,1.9098,1.9112,1.9115,1.9112,1.9124,1.912,1.9132,1.9129,1.9151,1.9147,1.9149,1.9148,1.9164,1.9162,1.9217,1.9223,1.9174,1.9175,1.9175,0,1.9078,1.9092,1.9095,1.9102,1.9105,1.9116,1.9122,1.9116,1.9123,1.9129,1.9139,1.9149,1.9157,1.9175,1.9174,1.9183,1.9179,1.9197,1.918,1.9181,1.9179,1.9178,1.9179,1.92,1.9201,1.9202,1.9202,0,1.9124,1.9122,1.9131,1.914,1.9148,1.9154,1.916,1.9166,1.916,1.9168,1.9179,1.9185,1.9197,1.9207,1.9215,1.9216,1.9208,1.9207,1.9211,1.9213,1.9214,1.9214,1.9158,1.9206,1.9206,1.9205,1.9205,1.9205,1.9157,1.9168,1.9172,1.9183,1.9186,1.9191,1.9201,1.9201,1.921,1.9219,1.9215,1.9228,1.9231,1.9241,1.9243,1.9253,1.9246,1.9252,1.9253,1.9255,1.9256,1.9213,1.9254,1.9254,1.9254,1.9254,1.9254,0,1.9202,1.9204,1.9213,1.9221,1.9229,1.9221,1.9226,1.9234,1.9245,1.9249,1.9257,1.9269,1.9279,1.9278,1.9286,1.9294,1.929,1.9297,1.9296,1.9296,1.9263,1.9258,1.9299,1.9299,1.9299,1.9299,1.9299,1.9299,1.9226,1.9244,1.9242,1.9261,1.9262,1.9275,1.9279,1.9283,1.9286,1.93,1.9308,1.9308,1.931,1.9318,1.9326,1.9326,1.9329,1.9337,1.9335,1.9303,1.9299,1.9294,1.929,1.9337,1.9337,1.9367,1.9368,1.9368]}]]